Retour au catalogue

THOR ABLESTAR DEB

ActifLEO
NORAD 334·DEBRIS·🇺🇸 United States

Lancé Jun 29, 1961 depuis Cape Canaveral Space Force Station

Loading…

Prochains Passages (prochaines 24 heures)

TLE

FraisSource: Space-Track

Époque: Sep 14, 2026, 11:13 UTC

1 00334U 61015DL  26257.46748284 -.00000019  00000-0  44025-4 0  9998
2 00334  66.9257 326.7756 0075174  33.8139 326.7702 13.91758106308485

Suivez THOR ABLESTAR DEB en temps réel avec AllMySat

Download on the App Store